Regional Weather Roundup
Issued by NWS

Home | Current Version | Previous Version | Text Only | Print | Product List | Glossary Off
Versions: 1 2 3 4 5 6 7 8 9 10 11 12 13 14 15 16 17 18 19 20 21 22 23 24 25 26 27 28 29 30 31 32 33 34 35 36 37 38 39 40 41 42 43 44 45 46 47 48 49 50

000
ASUS43 KTOP 050608
RWRKS

WEATHER ROUNDUP FOR KANSAS
NATIONAL WEATHER SERVICE GOODLAND KS
100 AM CDT THU MAY 05 2016

NOTE:  "FAIR" INDICATES FEW OR NO CLOUDS BELOW 12,000 FEET WITH NO
SIGNIFICANT WEATHER AND/OR OBSTRUCTIONS TO VISIBILITY.

KSZ001>006-013>018-027>032-041>047-050700-
NORTHWEST KANSAS

CITY           SKY/WX    TMP DP  RH WIND       PRES   REMARKS
GOODLAND       CLEAR     56  42  59 S10       30.12S
6HR MIN TEMP:  51; 6HR MAX TEMP:  74;

HAYS           CLEAR     48  39  71 NW3       30.09R
HILL CITY      CLEAR     47  43  86 W3        30.10R
6HR MIN TEMP:  47; 6HR MAX TEMP:  76;

RUSSELL        CLEAR     54  40  59 SW7       30.06S
6HR MIN TEMP:  52; 6HR MAX TEMP:  72;

$$

KSZ061>065-074>080-084>089-050700-
SOUTHWEST KANSAS

CITY           SKY/WX    TMP DP  RH WIND       PRES   REMARKS
DODGE CITY     CLEAR     55  42  61 S5        30.11R
6HR MIN TEMP:  53; 6HR MAX TEMP:  73;

ELKHART          N/A     59  41  51 S8          N/A
GARDEN CITY    CLEAR     54  44  69 SE7       30.11R
6HR MIN TEMP:  51; 6HR MAX TEMP:  75;

GREAT BEND     CLEAR     46  39  76 W5        30.08S
LIBERAL        CLEAR     57  43  58 SE7       30.12S
PRATT          CLEAR     51  42  70 CALM      30.09R
6HR MIN TEMP:  50; 6HR MAX TEMP:  69;

$$

KSZ066>073-081>083-090>101-050700-
SOUTHEAST KANSAS

CITY           SKY/WX    TMP DP  RH WIND       PRES   REMARKS
CHANUTE        CLEAR     48  41  76 NW3       30.03R
6HR MIN TEMP:  47; 6HR MAX TEMP:  70;

COFFEYVILLE    CLEAR     51  44  77 NW3       30.03R
6HR MIN TEMP:  50; 6HR MAX TEMP:  71;

HUTCHINSON     CLEAR     46  40  79 NW3       30.07R
6HR MIN TEMP:  44; 6HR MAX TEMP:  72;

MEDICINE LODGE   N/A     50  45  83 CALM      30.07R
PARSONS        CLEAR     46  44  93 CALM      30.04R
6HR MIN TEMP:  46; 6HR MAX TEMP:  71;

WICHITA INTL   CLEAR     49  42  77 W5        30.05S
6HR MIN TEMP:  49; 6HR MAX TEMP:  72;

WICHITA JABRA  CLEAR     56  37  49 NW6       30.04F
6HR MIN TEMP:  56; 6HR MAX TEMP:  70;

WICHITA MCCONL CLEAR     54  39  56 N1        30.05S
WINFIELD       CLEAR     49  43  80 CALM      30.36F
6HR MIN TEMP:  48; 6HR MAX TEMP:  71;

$$

KSZ007>012-019>026-033>040-048>060-102>105-050700-
NORTHEAST KANSAS

CITY           SKY/WX    TMP DP  RH WIND       PRES   REMARKS
CONCORDIA      CLEAR     50  36  58 W6        30.06R
6HR MIN TEMP:  49; 6HR MAX TEMP:  70;

EMPORIA        CLEAR     52  41  66 W5        30.04R
6HR MIN TEMP:  52; 6HR MAX TEMP:  70;

LAWRENCE       CLEAR     44  41  89 NW6       30.03R
6HR MIN TEMP:  44; 6HR MAX TEMP:  68;

MANHATTAN      CLEAR     46  40  79 CALM      30.04S
6HR MIN TEMP:  45; 6HR MAX TEMP:  71;

MARYSVILLE     CLEAR     46  39  76 CALM      30.05R
OLATHE IND     CLEAR     51  39  63 CALM      30.03R
6HR MIN TEMP:  50; 6HR MAX TEMP:  67;

OLATHE EXE     CLEAR     53  39  59 NW5       30.02S
6HR MIN TEMP:  53; 6HR MAX TEMP:  67;

SALINA         CLEAR     50  42  74 CALM      30.06S
6HR MIN TEMP:  48; 6HR MAX TEMP:  72;

TOPEKA FORBES  CLEAR     50  41  71 CALM      30.03S
6HR MIN TEMP:  50; 6HR MAX TEMP:  70;

$$



USA.gov is the U.S. government's official web portal to all federal, state and local government web resources and services.